STARLINK-33862, 63709

Orbit data source: Space-Track

STARLINK-33862, 63709 is a payload satellite owned by SpaceX/Seattle (US) in LEO that was launched on Mon, 28 Apr 2025 UTC via an FALCON 9 launch vehicle from the Air Force Western Test Range (AFWTR). Payload-class satellites include a variety of spacecraft equipped with specific instruments for various scientific and technological missions. These include communications satellites like Starlink; space stations such as the ISS; scientific satellites like the Hubble; Earth observation satellites from companies like Planet Labs, Umbra, and HawkEye 360; GPS; miniature CubeSats for education and research; and military/defense satellites.

Loading next visibility...
Identifier
63709, 2025-087N
Orbit
LEO
Country
Flag of USUS
Related business
Manufacturer
SpaceX/Seattle
Mission
Operational Commercial Communications
Bus & Motor
STARLINK V2MO, Unknown motor
Mass
575 kg wet, ~530 kg dry
Launch date (UTC)
2025-04-28 (1 year ago)
Launch vehicle
FALCON 9
Launch site
Air Force Western Test Range (AFWTR)
Object type
Payload
Rocket body
Debris
Shape & HBR
Box + 2 Pan, 17.7 m
Radar Cross Section
36.964 m², Large (>1 m²)

Expand to show TLE details & history
Last TLE update: 1 day ago

TLE from 1 day ago
0 STARLINK-33862
1 63709U 25087N   26170.53904990  .00014977  00000-0  51679-3 0  9991
2 63709  53.1609 106.4468 0001481  89.9503 270.1668 15.30198086 64795
Epoch: 2026-06-19T12:56Z
TLE epoch observation values (Epoch: 2026-06-19T12:56:13.911Z)
Latitude
0.00003°
Longitude
4.62228°
Altitude
476.118 km
Speed
7.629 km/s
True Right ascension
07h 05m 47s
True Declination
0° 00' 00"
Sunlit
Object was in daylight at epoch
Visualization orbit readout
Latitude
Unknown
Longitude
Unknown
Altitude
Unknown
Speed
Unknown
Apparent Right ascension
Unknown
Apparent Declination
Unknown
Sunlit
N/A
Visualization observer readout
Local Sidereal Time
07:19:15
Azimuth
Unknown
Elevation
Unknown
Doppler factor
Unknown
Orbital elements
Apogee altitude
476.492 km
Perigee altitude
474.462 km
Semi-major axis
6,853.614 km
Eccentricity
0.00015
Inclination
53.1609°
RAAN
106.4468°
Arg. of periapsis
89.9503°
True anomaly
270.14983°
Mean anomaly
270.1668°
Eccentric anomaly
270.15831°
Mean motion
3.82528 °/min
Orbital period
94.11 mins
BSTAR
0.00051679
Loading maneuver chart data...
Computing Atmospheric mass density...
Loading historical data...
Loading historical data...
Loading historical data...
Loading historical data...
Loading historical data...
Loading historical data...
Loading historical data...

Documentation

Showing up to 5 results
|